Wind_Speed
18 17 17 16 16 15 15 16 16 16 15 15 14 11 9 8 7 5 9 3 4 6 3 5 7 11 11 10 7 9 8 11 14 7 5 6 9 5 1 5 5 4 2 8 8
19 19 19 19 18 17 17 17 16 16 16 15 13 11 8 10 7 11 7 6 6 6 5 10 12 13 11 13 7 12 11 12 3 4 2 4 6 5 6 10 10 8 6 6 5
19 19 21 21 21 20 19 19 20 18 16 14 12 9 8 6 5 3 8 5 6 7 6 8 10 14 15 10 12 12 15 13 3 4 3 4 5 4 7 10 11 11 10 7 5
18 19 20 22 22 23 23 22 22 20 17 13 10 8 8 2 4 3 4 5 7 8 8 8 11 14 13 12 13 10 14 7 2 2 3 6 5 7 11 12 3 2 3 5 7
15 17 19 20 23 24 25 25 24 21 19 13 9 7 4 5 5 3 3 4 5 11 11 10 12 14 13 15 7 16 7 8 7 4 5 5 11 10 13 11 7 7 5 7 7
20 19 20 21 22 25 26 27 27 26 19 13 8 5 5 7 3 1 3 4 6 10 9 8 8 5 8 5 13 4 16 8 5 8 5 6 11 2 6 10 12 13 12 10 9
22 22 20 23 25 29 28 30 31 24 11 8 7 5 6 7 2 1 5 3 6 7 8 4 4 7 3 4 1 1 5 12 11 8 4 4 12 18 15 7 9 10 11 10 9
23 24 25 24 25 29 30 32 32 10 6 3 8 4 6 3 3 1 4 3 3 3 4 5 4 5 2 4 3 5 5 7 8 9 5 5 10 7 7 10 11 12 11 6 8
23 26 27 25 26 28 32 33 17 6 1 6 5 3 4 1 3 4 5 5 6 5 4 6 2 3 4 4 5 8 6 13 6 8 3 11 8 7 7 10 12 14 13 7 5
24 24 26 27 24 27 32 29 9 1 1 4 2 4 3 1 3 3 2 8 3 8 5 5 4 6 7 9 6 6 8 6 9 7 9 10 19 11 10 12 14 15 16 9 8
23 24 26 28 25 22 27 12 5 5 7 9 5 3 2 3 3 3 2 6 6 6 7 5 7 12 14 16 12 6 6 7 3 4 3 14 19 16 12 15 17 17 16 12 11
25 25 26 28 24 17 10 4 3 4 11 12 13 7 3 4 4 5 6 9 7 9 7 5 12 11 3 3 7 9 10 10 2 4 3 9 18 19 17 18 17 19 19 15 14
25 27 27 29 20 5 5 3 5 3 6 5 5 5 4 9 4 9 10 4 9 12 14 9 2 4 6 7 9 9 10 5 3 4 8 10 10 7 5 6 7 11 15 16 17
23 25 29 31 3 12 2 4 4 3 5 5 5 3 5 4 5 3 8 4 4 11 10 11 7 7 6 10 9 9 2 2 2 3 4 2 5 7 9 8 8 8 12 15 16
27 24 25 21 15 6 6 8 5 3 6 4 3 2 4 6 5 4 3 3 7 7 5 5 8 9 7 2 8 2 4 2 1 3 4 6 4 4 4 10 11 12 13 14 15
26 27 25 18 13 10 13 9 4 3 9 2 3 5 6 7 5 5 4 2 1 3 1 3 2 2 1 6 1 10 5 3 1 2 4 4 5 8 6 6 10 13 14 14 15
25 28 25 15 7 12 13 4 2 7 2 3 4 6 9 8 8 8 10 10 7 6 9 4 4 4 5 5 5 5 4 1 3 3 3 3 4 10 3 4 7 12 13 14 14
27 28 20 17 16 13 5 3 9 3 6 1 1 4 7 8 6 9 6 9 15 6 3 9 6 11 11 3 3 10 3 3 5 4 2 2 6 4 2 4 7 5 5 9 13
28 19 17 10 7 7 3 8 7 5 4 6 3 3 5 6 3 8 9 7 7 14 7 5 3 2 1 1 2 6 7 3 4 2 2 4 5 10 10 7 7 8 9 9 11
24 17 10 8 5 6 4 15 6 7 3 4 6 6 5 5 7 9 10 5 6 11 5 2 3 2 3 3 2 3 3 3 2 5 6 4 4 7 6 11 12 12 11 10 10
14 6 5 10 2 3 10 11 8 16 4 5 4 4 5 5 7 5 3 3 5 6 4 5 6 4 4 9 10 4 3 4 2 2 4 2 4 4 6 7 9 10 9 9 8
5 5 7 10 3 3 9 5 6 15 8 13 5 6 5 5 6 6 6 4 5 9 9 6 3 6 6 2 3 11 5 8 4 6 2 2 5 2 1 6 9 8 4 5 4
5 6 11 3 6 9 7 11 16 18 17 4 9 13 9 6 2 6 5 2 6 7 6 7 4 4 3 2 3 7 11 6 2 1 7 4 3 0 3 4 5 5 6 5 5
3 4 3 3 6 10 14 14 19 16 13 19 11 7 2 6 7 6 4 2 1 2 1 6 4 6 10 4 3 5 13 16 8 5 5 10 5 4 4 6 5 6 7 5 6
3 4 3 5 7 10 13 10 19 9 8 5 6 7 6 6 5 6 5 4 4 3 1 2 6 9 11 3 2 6 6 15 18 13 10 2 13 12 6 7 8 7 5 6 6
4 3 4 8 11 18 15 9 12 14 4 11 16 15 12 15 7 2 7 6 5 7 7 3 4 3 4 7 5 7 13 13 17 16 16 18 24 8 12 8 5 8 7 7 7
8 10 5 10 14 13 15 19 16 16 13 9 6 11 9 7 19 10 7 4 4 8 12 9 6 5 5 1 4 13 22 18 9 8 12 15 19 5 3 4 5 7 8 9 7
Wind_Direction
359 355 353 352 350 349 343 337 333 330 326 321 321 318 317 316 296 245 240 228 212 238 232 216 208 199 197 200 230 253 230 241 235 239 238 132 212 171 24 261 216 175 306 88 124
358 358 355 353 352 348 346 339 333 327 321 318 317 314 313 323 282 254 235 232 227 222 226 200 189 186 195 202 201 211 226 243 297 285 250 178 241 184 219 206 218 202 132 154 165
353 352 352 350 349 348 345 343 334 322 316 316 313 307 310 326 272 212 206 233 220 211 224 212 206 193 206 202 207 220 240 239 237 270 275 250 235 212 243 245 228 216 190 188 211
343 348 346 343 343 342 339 338 335 328 317 314 309 300 311 248 271 145 237 236 224 204 188 180 187 198 206 207 205 240 236 249 326 240 251 249 308 250 241 254 36 134 152 204 221
335 338 339 338 338 336 335 334 329 327 315 299 289 286 300 233 259 220 267 218 191 175 187 179 187 202 211 212 198 233 222 242 242 233 252 274 257 263 263 245 200 216 214 226 220
353 353 345 338 335 330 330 332 328 325 308 286 262 258 241 249 159 315 195 177 192 182 179 196 205 207 241 230 214 324 231 230 222 231 240 260 265 258 243 230 241 228 229 227 216
353 346 343 341 341 338 333 332 331 323 310 280 215 212 246 266 187 327 171 206 190 200 175 179 184 215 170 175 134 235 222 230 226 218 242 260 251 232 239 186 217 221 216 212 224
349 342 339 337 331 334 335 332 331 326 322 194 175 181 268 210 194 122 156 115 137 159 158 153 167 117 304 104 166 214 240 226 149 186 179 206 269 177 177 205 212 193 186 205 224
353 347 338 335 325 326 333 331 326 328 5 149 156 196 254 209 210 189 191 151 129 118 115 136 159 136 157 195 201 207 251 217 170 202 189 210 270 130 191 206 205 198 198 209 209
347 341 340 335 324 324 329 331 302 278 175 173 195 232 174 180 148 168 166 161 152 138 131 186 183 197 208 198 222 224 223 231 229 178 219 226 253 256 200 219 222 217 219 228 213
339 336 336 336 332 324 331 330 281 205 219 267 274 267 152 120 149 168 157 172 164 207 196 198 213 207 207 216 258 304 272 254 135 131 255 243 261 263 251 225 230 228 223 226 209
347 337 333 332 330 322 327 337 34 333 297 267 244 241 185 177 182 183 160 201 198 203 173 177 235 234 99 199 224 243 251 250 104 178 247 283 275 269 252 243 236 229 236 223 194
344 346 338 331 322 323 316 313 319 325 268 252 216 223 183 176 222 180 180 209 220 207 201 210 80 134 177 181 198 224 237 242 297 220 241 285 265 214 201 218 228 246 235 209 191
340 341 346 337 339 337 325 339 333 306 282 240 200 169 160 175 224 129 204 236 218 226 207 235 132 177 193 206 206 232 144 179 237 276 273 311 289 242 192 201 200 206 201 188 187
346 338 339 344 303 308 336 330 317 261 290 103 151 78 160 203 122 155 147 187 230 191 201 167 173 181 205 210 186 112 141 145 210 263 313 183 245 241 162 222 202 191 194 190 189
342 339 334 339 315 281 309 313 289 222 243 186 142 176 174 200 177 128 164 170 19 179 223 64 357 214 65 88 263 142 135 137 196 257 243 164 236 271 193 217 172 181 191 192 190
329 331 323 308 269 320 331 266 219 229 333 236 207 190 211 189 189 194 185 186 190 179 207 162 182 147 156 122 130 206 167 208 222 191 249 140 213 261 159 144 152 174 188 195 196
328 325 314 292 270 289 297 222 220 239 226 135 160 200 208 174 218 193 195 217 217 224 180 196 226 177 176 243 198 186 223 228 237 217 111 154 229 247 91 143 162 172 184 203 201
333 317 308 303 298 225 218 216 223 189 188 167 103 199 214 225 247 197 216 230 216 199 213 213 198 69 24 108 321 165 210 35 101 93 267 212 257 266 192 188 183 187 187 199 204
338 319 300 304 287 240 213 228 223 235 167 163 212 191 202 188 196 202 206 207 211 198 229 186 262 205 136 220 126 262 143 147 206 205 234 191 263 252 198 203 195 204 216 205 203
342 320 18 348 221 245 224 223 240 251 220 222 245 204 224 183 213 204 245 172 191 165 187 175 224 127 158 206 177 162 209 231 299 229 242 249 228 188 189 167 173 189 202 193 197
326 308 13 346 272 242 244 233 258 279 315 258 260 260 211 192 195 228 231 232 155 152 168 200 235 220 199 78 298 230 235 195 221 186 228 354 248 152 191 156 171 183 181 207 214
298 291 282 277 255 246 269 266 266 265 270 248 254 240 225 198 225 210 234 100 161 178 179 173 222 229 212 209 184 217 209 227 88 304 202 192 204 336 168 193 207 214 216 211 228
283 298 278 229 268 286 296 291 265 242 268 255 274 257 241 231 223 211 209 169 135 226 70 134 225 239 228 51 99 202 206 200 203 204 177 226 272 220 203 200 203 222 231 237 228
212 246 263 279 294 306 314 307 290 302 273 256 218 211 212 248 202 214 192 181 161 170 171 225 244 216 246 246 232 263 226 206 212 224 219 162 223 233 243 224 219 234 251 251 245
256 248 239 262 275 286 280 288 310 312 288 296 252 262 241 245 260 319 183 189 191 168 171 237 244 204 265 200 201 267 250 217 220 234 252 267 273 242 244 216 205 234 232 230 235
212 259 258 270 271 268 266 275 276 291 293 268 319 348 306 345 318 289 263 158 157 172 186 175 205 187 251 152 222 268 241 223 205 213 208 228 241 131 221 184 221 245 220 226 222
Height
808 805 801 798 795 792 789 787 784 781 778 777 774 772 771 769 768 767 765 763 764 763 763 764 764 764 763 758 759 755 759 755 748 749 744 748 752 752 754 753 753 753 753 760 766
807 805 802 799 795 791 788 786 783 780 777 775 772 771 770 768 767 764 762 761 762 762 763 762 760 761 759 757 757 756 756 747 738 739 746 750 753 748 756 753 755 756 760 765 766
807 804 801 798 795 791 788 785 781 779 776 773 771 770 769 768 766 757 758 760 760 761 762 761 759 759 756 753 753 753 751 739 746 750 754 753 756 753 754 751 745 749 752 761 764
807 804 801 798 795 791 787 784 780 776 774 771 769 769 768 769 762 757 758 758 759 760 761 760 758 759 756 758 747 756 748 747 752 758 759 758 754 755 752 747 751 752 756 760 761
805 802 800 797 794 790 786 782 778 773 771 769 768 768 768 766 757 757 757 757 758 758 758 756 757 756 755 750 752 757 747 753 755 763 761 760 760 755 749 748 752 756 759 758 758
804 801 799 795 791 788 783 779 774 770 766 765 765 767 768 762 756 756 756 757 758 758 757 756 754 754 752 752 756 750 748 756 759 759 761 764 755 761 743 743 747 751 754 755 757
804 801 797 794 789 785 781 776 770 765 762 761 763 766 764 755 756 756 756 757 756 757 756 758 758 759 757 757 759 758 763 758 755 758 759 766 757 747 742 748 748 751 751 753 755
804 800 796 792 787 783 777 772 766 762 760 760 762 765 757 754 756 756 757 757 757 757 757 758 759 759 758 762 761 761 760 754 740 758 760 765 737 731 738 745 746 746 747 750 752
802 799 795 789 785 781 775 769 764 762 761 760 763 762 755 755 755 756 757 756 758 758 758 759 759 758 763 760 760 758 743 745 752 757 756 760 736 734 742 743 740 741 743 745 749
803 799 795 789 783 780 774 767 764 761 763 761 761 763 756 753 754 755 756 757 757 759 760 759 756 755 755 753 749 736 747 739 735 755 761 752 743 731 738 740 738 735 736 740 745
803 798 793 787 781 779 774 768 764 760 760 751 745 746 750 754 755 755 756 757 756 755 752 756 754 748 741 743 736 748 740 737 742 761 761 745 736 727 723 729 736 731 732 735 741
802 797 791 785 779 777 776 773 775 777 760 745 746 747 749 750 751 753 756 755 753 749 749 757 749 736 744 742 751 749 744 739 753 762 764 742 734 722 715 714 720 727 730 731 738
802 796 790 783 776 776 776 776 775 775 763 738 743 741 744 748 744 746 754 751 748 746 748 741 745 749 748 753 753 749 744 741 751 757 756 753 719 710 718 724 727 728 725 727 734
801 796 790 782 777 777 775 776 774 775 757 737 741 741 744 743 745 749 751 751 750 743 742 741 750 752 752 747 747 746 754 756 758 750 740 748 735 702 705 717 723 726 724 726 732
800 796 792 787 785 779 779 776 775 775 760 733 740 745 742 740 745 748 751 750 742 745 747 742 753 754 751 746 748 749 759 758 759 752 756 742 745 698 714 713 712 721 726 728 732
800 796 792 788 785 782 778 777 776 769 752 743 737 739 740 739 741 746 746 750 750 749 747 750 758 752 749 762 759 761 760 760 759 754 753 733 737 702 696 699 698 712 722 726 732
799 794 791 789 784 780 780 777 774 762 738 742 735 736 733 734 736 739 741 744 740 746 741 751 752 758 757 762 763 760 754 756 751 755 734 752 748 700 700 706 702 708 715 722 728
797 792 787 785 782 782 781 775 770 747 746 737 736 735 732 730 731 734 735 733 733 737 729 733 740 752 753 747 747 754 751 733 729 727 723 760 740 699 702 705 708 714 718 717 722
794 788 783 781 780 780 780 769 739 739 737 737 742 746 740 733 732 732 730 723 718 732 730 725 728 761 760 756 757 757 759 751 759 802 747 712 710 697 703 709 714 717 720 720 721
794 787 781 780 780 778 776 750 745 726 733 733 732 738 732 744 734 729 723 713 719 726 726 730 734 758 766 764 759 758 754 749 753 738 730 716 723 695 701 698 703 711 713 713 717
796 788 781 780 779 777 761 748 740 732 731 731 735 736 731 738 732 732 718 719 719 731 733 729 735 758 761 754 741 764 758 763 745 732 715 707 696 690 685 689 704 704 707 708 713
799 793 784 783 780 772 756 749 742 732 732 727 729 726 732 735 736 727 716 716 724 730 737 734 738 726 738 745 748 737 739 741 720 733 731 732 701 698 692 691 696 703 709 710 715
797 791 783 784 776 762 757 752 745 744 737 737 725 719 721 735 732 727 718 731 729 730 734 739 736 725 734 747 750 744 736 735 753 742 731 716 693 706 701 702 704 707 708 713 716
800 791 784 782 775 776 770 760 745 737 738 733 729 728 734 729 725 723 729 734 738 734 739 733 742 723 699 708 717 735 727 730 734 725 712 704 702 697 699 707 706 707 707 710 715
797 787 784 780 776 776 777 765 754 752 741 737 734 731 730 724 722 725 724 737 737 740 741 740 736 731 720 723 726 721 721 724 736 718 705 699 703 698 708 712 714 713 711 713 714
790 786 783 780 779 775 768 769 766 760 761 744 736 727 728 727 718 721 723 728 724 742 745 744 730 734 729 724 730 733 718 719 723 726 718 711 699 694 690 698 709 711 713 711 712
782 784 786 778 774 774 768 763 764 763 752 752 752 748 738 739 736 724 716 719 726 731 739 740 741 737 718 725 724 723 696 702 711 713 711 710 683 688 697 700 703 702 705 704 705